Hayward, WI

7:46 PM CST on November 17, 2019 (GMT -0600)
Sawyer County

Weather History for KHYR - September, 2019

Change the Weather History Date:

Saturday, September 21, 2019

  Actual Average Record
Temperature  
Mean Temperature 70 °F -  
Max Temperature 77 °F 68 °F 84 °F (2005)
Min Temperature 64 °F 46 °F 26 °F (1999)
Cooling Degree Days 4    
Growing Degree Days 20 (Base 50)    
Moisture  
Dew Point 66 °F    
Average Humidity 88    
Maximum Humidity 96    
Minimum Humidity 76    
Precipitation  
Precipitation 1.66 in - - ()
Sea Level Pressure  
Sea Level Pressure 29.81 in    
Wind  
Wind Speed 10 mph (South)    
Max Wind Speed 18 mph    
Max Gust Speed 28 mph    
Visibility 5 miles    
Events Fog , Rain , Thunderstorm    
Averages and records for this station are not official NWS values.
T = Trace of Precipitation, MM = Missing Value Source: NWS Daily Summary

Daily Weather History Graph

Daily Weather History Graph

Search for Another Location

Airport or City:

Astronomy

Sep. 21, 2019 Rise Set
Actual Time 6:51 AM CDT 7:05 PM CDT
Civil Twilight 6:21 AM CDT 7:35 PM CDT
Nautical Twilight 5:46 AM CDT 8:10 PM CDT
Astronomical Twilight 5:09 AM CDT 8:46 PM CDT
Moon 11:22 PM CDT (9/21) 2:18 PM CDT (9/21)
Length of Visible Light 13h 14m
Length of Day
12h 14m
Waning Gibbous, 54% of the Moon is Illuminated
Sep 21
Waning Gibbous
Sep 21
Last Quarter
Sep 28
New
Oct 5
First Quarter
Oct 13
Full

Hourly Weather History & Observations

Time (CDT) Temp. Dew Point Humidity Pressure Visibility Wind Dir Wind Speed Gust Speed Precip Events Conditions
12:53 AM 71.1 °F 66.9 °F 87% 29.97 in 5.0 mi SSE 8.1 mph - N/A   Clear
1:53 AM 71.1 °F 66.9 °F 87% 29.96 in 5.0 mi SSE 4.6 mph - N/A   Clear
2:53 AM 70.0 °F 66.9 °F 90% 29.94 in 5.0 mi South 6.9 mph - N/A   Clear
3:53 AM 70.0 °F 66.9 °F 90% 29.91 in 5.0 mi SSE 8.1 mph - N/A   Clear
4:53 AM 70.0 °F 66.0 °F 87% 29.89 in 5.0 mi SSE 8.1 mph - N/A   Clear
5:53 AM 69.1 °F 66.0 °F 90% 29.87 in 6.0 mi SSE 8.1 mph - N/A   Clear
6:53 AM 69.1 °F 66.0 °F 90% 29.87 in 5.0 mi South 9.2 mph - N/A   Clear
7:53 AM 69.1 °F 66.0 °F 90% 29.85 in 5.0 mi SSE 8.1 mph - 0.00 in Rain Light Rain
8:43 AM 71.1 °F 66.9 °F 87% 29.84 in 6.0 mi South 11.5 mph - 0.00 in   Mostly Cloudy
8:53 AM 71.1 °F 66.9 °F 87% 29.83 in 6.0 mi South 11.5 mph - 0.00 in   Overcast
9:53 AM 72.0 °F 66.9 °F 84% 29.83 in 7.0 mi South 11.5 mph 21.9 mph N/A   Overcast
10:14 AM 71.1 °F 66.9 °F 87% 29.84 in 1.5 mi South 15.0 mph 23.0 mph 0.02 in Rain Light Rain
10:31 AM 70.0 °F 68.0 °F 93% 29.84 in 2.0 mi South 12.7 mph - 0.02 in Rain Light Rain
10:37 AM 70.0 °F 68.0 °F 93% 29.84 in 3.0 mi South 12.7 mph - 0.02 in   Overcast
10:43 AM 71.1 °F 68.0 °F 90% 29.84 in 2.0 mi South 11.5 mph - 0.02 in   Overcast
10:47 AM 71.6 °F 68.0 °F 88% 29.84 in 1.8 mi South 11.5 mph - 0.02 in   Overcast
10:53 AM 71.1 °F 68.0 °F 90% 29.83 in 1.5 mi South 12.7 mph 19.6 mph 0.02 in Rain Light Rain
11:05 AM 71.1 °F 68.0 °F 90% 29.84 in 2.0 mi South 13.8 mph - 0.00 in Rain Light Rain
11:15 AM 70.0 °F 68.0 °F 93% 29.85 in 3.0 mi SSW 12.7 mph - 0.00 in Rain Light Rain
11:22 AM 70.0 °F 68.0 °F 93% 29.85 in 3.0 mi SSW 10.4 mph - 0.00 in Rain Light Rain
11:53 AM 72.0 °F 68.0 °F 87% 29.84 in 9.0 mi SSW 12.7 mph - 0.00 in   Overcast
12:53 PM 73.0 °F 68.0 °F 84% 29.80 in 10.0 mi South 9.2 mph - N/A   Mostly Cloudy
1:09 PM 75.0 °F 69.1 °F 82% 29.79 in 10.0 mi South 16.1 mph 23.0 mph N/A   Scattered Clouds
1:37 PM 75.9 °F 68.0 °F 76% 29.79 in 10.0 mi SSW 12.7 mph 27.6 mph N/A   Mostly Cloudy
1:53 PM 75.0 °F 66.9 °F 76% 29.78 in 10.0 mi SSW 18.4 mph - N/A   Overcast
2:53 PM 73.9 °F 68.0 °F 82% 29.77 in 8.0 mi South 13.8 mph 24.2 mph N/A   Overcast
3:53 PM 73.9 °F 69.1 °F 85% 29.75 in 10.0 mi South 15.0 mph - 0.00 in   Overcast
4:53 PM 73.9 °F 68.0 °F 82% 29.73 in 10.0 mi South 13.8 mph 25.3 mph N/A   Overcast
5:53 PM 73.9 °F 68.0 °F 82% 29.74 in 10.0 mi South 11.5 mph - N/A   Overcast
6:19 PM 73.9 °F 68.0 °F 82% 29.75 in 10.0 mi South 10.4 mph - N/A   Overcast
6:53 PM 73.0 °F 68.0 °F 84% 29.73 in 10.0 mi South 8.1 mph - N/A   Mostly Cloudy
7:17 PM 73.0 °F 68.0 °F 84% 29.74 in 10.0 mi South 11.5 mph - 0.00 in Rain , Thunderstorm Light Rain
7:26 PM 72.0 °F 68.0 °F 87% 29.79 in 1.2 mi NW 11.5 mph 26.5 mph 0.15 in Rain , Thunderstorm Light Rain
7:28 PM 70.0 °F 66.9 °F 90% 29.79 in 0.8 mi NW 11.5 mph 27.6 mph 0.25 in Rain , Thunderstorm Heavy Thunderstorms and Rain
7:37 PM 64.9 °F 62.1 °F 90% 29.78 in 0.2 mi Variable 5.8 mph 23.0 mph 0.64 in Fog , Rain , Thunderstorm Heavy Thunderstorms and Rain
7:53 PM 64.9 °F 63.0 °F 93% 29.76 in 0.2 mi Variable 6.9 mph - 1.08 in Fog , Rain , Thunderstorm Heavy Rain
8:01 PM 66.9 °F 62.1 °F 84% 29.77 in 1.0 mi SW 12.7 mph 20.7 mph 0.15 in Rain , Thunderstorm Heavy Rain
8:03 PM 66.9 °F 62.1 °F 84% 29.76 in 0.8 mi South 12.7 mph 20.7 mph 0.26 in Rain , Thunderstorm Heavy Rain
8:06 PM 64.9 °F 62.1 °F 90% 29.76 in 0.5 mi SSE 13.8 mph - 0.29 in Fog , Rain Heavy Rain
8:13 PM 66.0 °F 63.0 °F 90% 29.76 in 1.2 mi South 13.8 mph - 0.38 in Rain Heavy Rain
8:17 PM 66.9 °F 64.0 °F 90% 29.76 in 2.0 mi SSW 10.4 mph - 0.39 in Rain , Thunderstorm Thunderstorms and Rain
8:27 PM 66.9 °F 64.0 °F 90% 29.78 in 8.0 mi Variable 4.6 mph 17.3 mph 0.39 in Rain , Thunderstorm Light Thunderstorms and Rain
8:43 PM 68.0 °F 64.9 °F 90% 29.77 in 2.0 mi SSW 10.4 mph - 0.47 in Rain , Thunderstorm Thunderstorms and Rain
8:50 PM 66.2 °F 64.4 °F 94% 29.76 in 1.2 mi South 10.4 mph 20.7 mph 0.53 in Rain , Thunderstorm Heavy Thunderstorms and Rain
8:53 PM 66.9 °F 64.0 °F 90% 29.77 in 1.8 mi SW 9.2 mph 20.7 mph 0.53 in Rain , Thunderstorm Light Thunderstorms and Rain
8:56 PM 66.9 °F 64.0 °F 90% 29.78 in 3.0 mi SSW 12.7 mph 20.7 mph 0.00 in Rain , Thunderstorm Light Thunderstorms and Rain
9:08 PM 66.9 °F 63.0 °F 87% 29.78 in 10.0 mi SW 5.8 mph - 0.00 in Thunderstorm Scattered Clouds
9:19 PM 64.9 °F 63.0 °F 93% 29.78 in 10.0 mi South 5.8 mph - 0.00 in   Scattered Clouds
9:43 PM 66.0 °F 63.0 °F 90% 29.80 in 7.0 mi SW 6.9 mph - 0.01 in Rain , Thunderstorm Light Rain
9:53 PM 66.0 °F 63.0 °F 90% 29.79 in 4.0 mi SSW 10.4 mph 18.4 mph 0.02 in Rain , Thunderstorm Rain
10:06 PM 66.0 °F 63.0 °F 90% 29.78 in 5.0 mi SSW 9.2 mph - 0.01 in Rain Light Rain
10:53 PM 64.0 °F 63.0 °F 96% 29.78 in 9.0 mi SSW 3.5 mph - 0.01 in   Mostly Cloudy
11:53 PM 64.9 °F 62.1 °F 90% 29.79 in 10.0 mi SSW 4.6 mph - N/A   Mostly Cloudy